TimeEET,TemperatureF,Dew PointF,Humidity,Sea Level PressureIn,VisibilityMPH,Wind Direction,Wind SpeedMPH,Gust SpeedMPH,PrecipitationIn,Events,Conditions,WindDirDegrees,DateUTC
12:20 AM,35.6,32.0,87,30.01,4.3,North,10.4,-,N/A,,Mostly Cloudy,360,2013-01-27 22:20:00
12:50 AM,35.6,32.0,87,30.01,4.3,North,10.4,-,N/A,,Mostly Cloudy,360,2013-01-27 22:50:00
1:20 AM,37.4,30.2,75,30.01,3.7,North,9.2,-,N/A,,Mostly Cloudy,10,2013-01-27 23:20:00
1:50 AM,35.6,32.0,87,30.01,3.7,North,9.2,-,N/A,,Mostly Cloudy,360,2013-01-27 23:50:00
2:00 AM,36,31,75,30.02,4,North,9.2,,,,Mist,0,2013-01-28 00:00:00
2:20 AM,37.4,32.0,81,30.01,3.7,North,8.1,-,N/A,,Mostly Cloudy,10,2013-01-28 00:20:00
2:50 AM,37.4,32.0,81,30.01,3.7,NNE,6.9,-,N/A,,Mostly Cloudy,20,2013-01-28 00:50:00
3:20 AM,37.4,30.2,75,30.01,4.3,NNE,9.2,-,N/A,,Mostly Cloudy,20,2013-01-28 01:20:00
3:50 AM,37.4,32.0,81,29.98,4.3,NNE,9.2,-,N/A,,Mostly Cloudy,20,2013-01-28 01:50:00
4:20 AM,37.4,32.0,81,30.01,4.3,North,9.2,-,N/A,,Mostly Cloudy,360,2013-01-28 02:20:00
4:50 AM,37.4,32.0,81,30.01,6.2,North,6.9,-,N/A,,Mostly Cloudy,360,2013-01-28 02:50:00
5:20 AM,37.4,30.2,75,30.01,6.2,North,9.2,-,N/A,,Mostly Cloudy,10,2013-01-28 03:20:00
5:50 AM,37.4,32.0,81,30.01,6.2,NNE,9.2,-,N/A,,Mostly Cloudy,20,2013-01-28 03:50:00
6:20 AM,37.4,32.0,81,30.01,6.2,North,8.1,-,N/A,,Mostly Cloudy,10,2013-01-28 04:20:00
6:50 AM,37.4,32.0,81,30.01,6.2,North,8.1,-,N/A,,Mostly Cloudy,350,2013-01-28 04:50:00
7:20 AM,37.4,32.0,81,30.01,6.2,North,8.1,-,N/A,,Mostly Cloudy,350,2013-01-28 05:20:00
7:50 AM,37.4,33.8,87,30.01,6.2,NNW,9.2,-,N/A,,Mostly Cloudy,340,2013-01-28 05:50:00
8:00 AM,37,34,83,30.02,6,NNW,9.2,,,,Mostly Cloudy,340,2013-01-28 06:00:00
8:20 AM,37.4,33.8,87,30.01,6.2,NNW,9.2,-,N/A,,Mostly Cloudy,340,2013-01-28 06:20:00
8:50 AM,37.4,33.8,87,30.01,6.2,NNW,8.1,-,N/A,,Mostly Cloudy,340,2013-01-28 06:50:00
9:20 AM,39.2,35.6,87,30.01,6.2,Variable,5.8,-,N/A,,Mostly Cloudy,0,2013-01-28 07:20:00
9:50 AM,39.2,33.8,81,30.01,6.2,NNW,5.8,-,N/A,,Mostly Cloudy,340,2013-01-28 07:50:00
10:20 AM,39.2,33.8,81,30.01,6.2,NNE,4.6,-,N/A,,Mostly Cloudy,20,2013-01-28 08:20:00
10:50 AM,39.2,33.8,81,30.01,6.2,ENE,4.6,-,N/A,,Mostly Cloudy,60,2013-01-28 08:50:00
11:20 AM,39.2,33.8,81,29.98,6.2,ENE,4.6,-,N/A,,Mostly Cloudy,70,2013-01-28 09:20:00
11:50 AM,41.0,33.8,76,29.98,6.2,ENE,4.6,-,N/A,,Mostly Cloudy,70,2013-01-28 09:50:00
12:20 PM,41.0,33.8,76,29.98,6.2,East,3.5,-,N/A,,Mostly Cloudy,100,2013-01-28 10:20:00
12:50 PM,41.0,33.8,76,29.98,6.2,East,3.5,-,N/A,,Mostly Cloudy,90,2013-01-28 10:50:00
1:20 PM,41.0,33.8,76,29.98,6.2,Variable,1.2,-,N/A,,Mostly Cloudy,0,2013-01-28 11:20:00
1:50 PM,42.8,33.8,70,29.95,4.3,Variable,1.2,-,N/A,,Mostly Cloudy,0,2013-01-28 11:50:00
2:00 PM,42,34,64,29.97,4,NE,1.2,,,,Mist,50,2013-01-28 12:00:00
2:20 PM,42.8,33.8,70,29.95,2.5,Variable,2.3,-,N/A,,Mostly Cloudy,0,2013-01-28 12:20:00
2:50 PM,42.8,33.8,70,29.95,2.5,North,5.8,-,N/A,,Mostly Cloudy,350,2013-01-28 12:50:00
3:20 PM,42.8,33.8,70,29.95,2.5,NNE,6.9,-,N/A,,Mostly Cloudy,20,2013-01-28 13:20:00
3:50 PM,41.0,33.8,76,29.95,2.5,NNE,6.9,-,N/A,,Mostly Cloudy,20,2013-01-28 13:50:00
4:20 PM,41.0,33.8,76,29.98,3.7,NE,5.8,-,N/A,,Mostly Cloudy,40,2013-01-28 14:20:00
4:50 PM,41.0,33.8,76,29.98,3.7,NE,6.9,-,N/A,,Mostly Cloudy,40,2013-01-28 14:50:00
5:20 PM,41.0,33.8,76,29.98,3.7,NNE,6.9,-,N/A,,Mostly Cloudy,30,2013-01-28 15:20:00
5:50 PM,41.0,33.8,76,30.01,3.7,North,8.1,-,N/A,,Mostly Cloudy,10,2013-01-28 15:50:00
6:20 PM,41.0,33.8,76,30.01,3.7,NE,5.8,-,N/A,,Mostly Cloudy,40,2013-01-28 16:20:00
6:50 PM,41.0,33.8,76,30.01,3.7,NNE,6.9,-,N/A,,Mostly Cloudy,30,2013-01-28 16:50:00
7:20 PM,41.0,35.6,81,30.01,3.7,NNE,5.8,-,N/A,,Mostly Cloudy,20,2013-01-28 17:20:00
7:50 PM,41.0,33.8,76,30.04,3.7,North,6.9,-,N/A,Rain,Light Rain Showers,10,2013-01-28 17:50:00
8:00 PM,41,35,71,30.04,4,North,6.9,,,Rain,Light Rain Showers,10,2013-01-28 18:00:00
8:20 PM,41.0,35.6,81,30.04,3.7,Variable,3.5,-,N/A,Rain,Light Rain Showers,0,2013-01-28 18:20:00
8:50 PM,41.0,33.8,76,30.04,3.7,Variable,4.6,-,N/A,Rain,Light Rain Showers,0,2013-01-28 18:50:00
9:20 PM,41.0,33.8,76,30.04,3.7,NNE,4.6,-,N/A,Rain,Light Rain Showers,30,2013-01-28 19:20:00
9:50 PM,39.2,35.6,87,30.04,3.7,NNW,6.9,-,N/A,Rain,Light Rain Showers,340,2013-01-28 19:50:00
10:20 PM,39.2,35.6,87,30.04,3.7,North,10.4,-,N/A,Rain,Light Rain Showers,350,2013-01-28 20:20:00
10:50 PM,39.2,37.4,93,30.06,3.7,NNW,10.4,-,N/A,Rain,Light Rain Showers,330,2013-01-28 20:50:00
11:20 PM,37.4,35.6,93,30.06,3.7,North,12.7,-,N/A,Rain,Light Rain Showers,350,2013-01-28 21:20:00
11:50 PM,37.4,35.6,93,30.06,3.7,North,13.8,-,N/A,Rain,Light Rain Showers,360,2013-01-28 21:50:00